TimeEDT,TemperatureF,Dew PointF,Humidity,Sea Level PressureIn,VisibilityMPH,Wind Direction,Wind SpeedMPH,Gust SpeedMPH,PrecipitationIn,Events,Conditions,WindDirDegrees,DateUTC
12:15 AM,60.3,55.8,85,30.00,10.0,SSW,4.6,-,N/A,,Clear,210,2013-07-28 04:15:00
12:35 AM,59.9,56.3,88,30.00,10.0,South,3.5,-,N/A,,Clear,180,2013-07-28 04:35:00
12:55 AM,58.3,54.7,88,30.00,10.0,SW,4.6,-,N/A,,Clear,220,2013-07-28 04:55:00
1:15 AM,58.3,55.4,90,30.00,10.0,SSW,3.5,-,N/A,,Clear,200,2013-07-28 05:15:00
1:35 AM,57.7,54.9,90,30.00,10.0,SW,5.8,-,N/A,,Clear,220,2013-07-28 05:35:00
1:55 AM,59.0,55.6,88,30.00,10.0,SW,3.5,-,N/A,,Clear,220,2013-07-28 05:55:00
2:15 AM,57.4,54.5,90,30.00,10.0,SSW,3.5,-,N/A,,Clear,210,2013-07-28 06:15:00
2:35 AM,56.8,54.1,91,30.00,10.0,SSW,3.5,-,N/A,,Clear,210,2013-07-28 06:35:00
2:55 AM,57.2,54.7,91,30.00,10.0,SW,4.6,-,N/A,,Clear,220,2013-07-28 06:55:00
3:15 AM,57.0,54.3,91,30.00,10.0,Calm,Calm,-,N/A,,Clear,0,2013-07-28 07:15:00
3:35 AM,56.5,53.8,91,30.00,10.0,SW,5.8,-,N/A,,Clear,220,2013-07-28 07:35:00
3:55 AM,58.8,55.9,90,30.00,10.0,South,4.6,-,N/A,,Clear,190,2013-07-28 07:55:00
4:15 AM,57.9,54.1,87,30.00,10.0,SW,3.5,-,N/A,,Clear,220,2013-07-28 08:15:00
4:35 AM,58.1,54.5,88,30.00,10.0,South,3.5,-,N/A,,Scattered Clouds,190,2013-07-28 08:35:00
4:55 AM,61.7,55.9,81,30.00,10.0,South,4.6,-,N/A,,Scattered Clouds,170,2013-07-28 08:55:00
5:15 AM,61.0,55.9,83,30.00,10.0,South,4.6,-,N/A,,Clear,170,2013-07-28 09:15:00
5:35 AM,62.1,56.5,82,30.01,10.0,SSW,5.8,-,N/A,,Clear,200,2013-07-28 09:35:00
5:55 AM,62.6,57.2,82,30.01,10.0,South,5.8,-,N/A,,Clear,190,2013-07-28 09:55:00
6:15 AM,61.0,56.5,85,30.01,10.0,SW,5.8,-,N/A,,Clear,220,2013-07-28 10:15:00
6:35 AM,61.0,57.2,87,30.01,10.0,SSW,4.6,-,N/A,,Clear,200,2013-07-28 10:35:00
6:55 AM,60.8,56.7,86,30.02,10.0,SW,4.6,-,N/A,,Scattered Clouds,230,2013-07-28 10:55:00
7:15 AM,61.3,57.4,87,30.01,10.0,SSW,3.5,-,N/A,,Scattered Clouds,210,2013-07-28 11:15:00
7:35 AM,63.3,58.3,84,30.01,10.0,Calm,Calm,-,N/A,,Clear,0,2013-07-28 11:35:00
7:55 AM,62.1,57.6,85,30.01,10.0,Calm,Calm,-,N/A,,Clear,0,2013-07-28 11:55:00
8:15 AM,62.8,58.3,85,30.01,10.0,Calm,Calm,-,N/A,,Clear,0,2013-07-28 12:15:00
8:35 AM,63.5,58.3,83,30.02,10.0,SW,3.5,-,N/A,,Clear,230,2013-07-28 12:35:00
8:55 AM,64.6,59.4,83,30.02,10.0,SSW,4.6,-,N/A,,Clear,210,2013-07-28 12:55:00
9:15 AM,66.2,60.3,81,30.01,10.0,SW,4.6,-,N/A,,Clear,220,2013-07-28 13:15:00
9:35 AM,66.4,60.3,81,30.01,10.0,Calm,Calm,-,N/A,,Scattered Clouds,0,2013-07-28 13:35:00
9:55 AM,68.9,60.8,75,30.00,10.0,SSE,6.9,-,N/A,,Mostly Cloudy,160,2013-07-28 13:55:00
10:15 AM,70.5,59.9,69,30.00,10.0,SSE,11.5,-,N/A,,Scattered Clouds,160,2013-07-28 14:15:00
10:35 AM,72.0,59.9,66,30.00,10.0,SE,9.2,-,N/A,,Clear,140,2013-07-28 14:35:00
10:55 AM,73.6,59.5,61,30.00,10.0,SE,11.5,-,N/A,,Scattered Clouds,140,2013-07-28 14:55:00
11:15 AM,73.4,58.8,60,29.99,10.0,SSE,6.9,-,N/A,,Mostly Cloudy,150,2013-07-28 15:15:00
11:35 AM,73.4,59.2,61,29.99,10.0,SE,11.5,-,N/A,,Scattered Clouds,130,2013-07-28 15:35:00
11:55 AM,74.5,60.1,61,29.98,10.0,SE,9.2,-,N/A,,Clear,140,2013-07-28 15:55:00
12:15 PM,74.3,60.1,61,29.98,10.0,SE,6.9,-,N/A,,Scattered Clouds,140,2013-07-28 16:15:00
12:35 PM,75.2,61.0,61,29.98,10.0,SSE,13.8,-,N/A,,Mostly Cloudy,150,2013-07-28 16:35:00
12:55 PM,76.6,59.5,55,29.97,10.0,SSE,12.7,18.4,N/A,,Scattered Clouds,160,2013-07-28 16:55:00
1:15 PM,75.6,59.7,58,29.97,10.0,SSE,11.5,-,N/A,,Scattered Clouds,160,2013-07-28 17:15:00
1:35 PM,74.3,59.4,60,29.97,10.0,SE,10.4,-,N/A,,Overcast,140,2013-07-28 17:35:00
1:55 PM,75.0,58.5,56,29.98,10.0,SSE,8.1,16.1,N/A,,Overcast,160,2013-07-28 17:55:00
2:15 PM,76.1,59.2,56,29.97,10.0,SSE,11.5,-,N/A,,Overcast,150,2013-07-28 18:15:00
2:35 PM,76.1,59.0,55,29.97,10.0,South,8.1,-,N/A,,Scattered Clouds,170,2013-07-28 18:35:00
2:55 PM,76.6,59.2,55,29.97,10.0,South,10.4,16.1,N/A,,Scattered Clouds,170,2013-07-28 18:55:00
3:15 PM,76.3,59.9,57,29.97,10.0,SE,12.7,17.3,N/A,,Scattered Clouds,140,2013-07-28 19:15:00
3:35 PM,78.4,59.9,53,29.96,10.0,SE,12.7,-,N/A,,Mostly Cloudy,140,2013-07-28 19:35:00
3:55 PM,75.9,57.6,53,29.96,10.0,SE,10.4,18.4,N/A,,Mostly Cloudy,140,2013-07-28 19:55:00
4:15 PM,76.6,59.0,54,29.96,10.0,SSE,9.2,-,N/A,,Scattered Clouds,160,2013-07-28 20:15:00
4:35 PM,78.3,59.5,52,29.95,10.0,SSE,8.1,-,N/A,,Scattered Clouds,160,2013-07-28 20:35:00
4:55 PM,75.9,58.1,54,29.96,10.0,South,9.2,-,N/A,,Mostly Cloudy,170,2013-07-28 20:55:00
5:15 PM,74.8,58.6,57,29.95,10.0,SSE,10.4,17.3,N/A,,Overcast,150,2013-07-28 21:15:00
5:35 PM,75.2,59.4,58,29.95,10.0,SSE,9.2,-,N/A,,Mostly Cloudy,150,2013-07-28 21:35:00
5:55 PM,74.7,60.1,60,29.95,10.0,SE,8.1,-,N/A,,Scattered Clouds,140,2013-07-28 21:55:00
6:15 PM,74.1,60.4,62,29.95,10.0,SSE,5.8,-,N/A,,Mostly Cloudy,150,2013-07-28 22:15:00
6:35 PM,73.4,60.4,64,29.95,10.0,SSE,4.6,-,N/A,,Overcast,160,2013-07-28 22:35:00
6:55 PM,73.0,61.3,67,29.95,10.0,SE,5.8,-,N/A,,Overcast,140,2013-07-28 22:55:00
7:15 PM,72.9,61.7,68,29.96,10.0,SSE,9.2,-,N/A,,Scattered Clouds,160,2013-07-28 23:15:00
7:35 PM,72.9,61.7,68,29.96,10.0,SSE,9.2,-,N/A,,Scattered Clouds,160,2013-07-28 23:35:00
7:55 PM,72.5,62.1,70,29.96,10.0,SSE,6.9,-,N/A,,Mostly Cloudy,160,2013-07-28 23:55:00
8:15 PM,72.1,62.2,71,29.95,10.0,SSE,8.1,-,N/A,,Overcast,150,2013-07-29 00:15:00
8:35 PM,72.3,62.2,70,29.95,10.0,SSE,8.1,-,N/A,,Overcast,160,2013-07-29 00:35:00
8:55 PM,69.3,63.9,83,29.97,10.0,SSW,9.2,-,N/A,Rain,Rain,210,2013-07-29 00:55:00
9:15 PM,68.0,64.4,88,29.99,3.0,SSW,9.2,-,N/A,Rain,Heavy Rain,200,2013-07-29 01:15:00
9:35 PM,67.5,64.0,89,29.98,10.0,South,5.8,-,N/A,Rain,Light Rain,190,2013-07-29 01:35:00
9:55 PM,67.5,63.9,88,29.99,10.0,South,5.8,-,N/A,,Overcast,170,2013-07-29 01:55:00
10:15 PM,67.5,64.0,89,29.98,10.0,South,3.5,-,N/A,,Overcast,170,2013-07-29 02:15:00
10:35 PM,67.3,63.9,89,29.99,10.0,Calm,Calm,-,N/A,Rain,Rain,0,2013-07-29 02:35:00
10:55 PM,67.1,63.9,89,29.99,10.0,Calm,Calm,-,N/A,Rain,Light Rain,0,2013-07-29 02:55:00
11:15 PM,67.1,63.5,88,29.98,7.0,SSE,3.5,-,N/A,Rain,Rain,160,2013-07-29 03:15:00
11:35 PM,66.7,63.7,90,29.98,7.0,WSW,3.5,-,N/A,Rain,Rain,240,2013-07-29 03:35:00
11:55 PM,66.6,63.7,90,29.98,2.0,SE,9.2,-,N/A,Rain,Heavy Rain,140,2013-07-29 03:55:00